Location: El Manguito
(10.2358°N, 67.3634°W)
Time: 14:14:23
(UTC+00:00)

ARIANE 44L R/B - Pass Details

Date: 01 April 2023
Orbit: 344 x 33644 km, 7.6° (Epoch: 01 June)

Event Time Altitude Azimuth Distance (km) Brightness Sun altitude
Rises 22:45:39 0° 263° (W) 16,226 11.9 -2.2°
Reaches altitude 10° 23:09:26 10° 262° (W) 8,823 9.9 -8.0°
Maximum altitude 23:28:20 66° 183° (S) 1,144 3.8 -12.6°
Enters shadow 23:31:08 20° 103° (ESE) 1,545 3.9 -13.3°
